This demonstration page uses our WeatherBlox Daily Observations layout. Learn more.

Left ArrowRight Arrow

38.89511, -77.03637

Hourly Observations for March 6, 2021

Temp ( °F °C ) Dew Point ( °F °C ) Humidity (%) Winds ( mph kmh ) Pressure ( in mb ) Visibility ( mi km ) Precip ( " mm )
12:52 am 00:52 Clear 35 1.7 13 -10.6 40 40 NNW 10 17 30.15 1021 10 16.0934 0 0
1:52 am 01:52 Clear 34 1.1 14 -10 44 44 WNW 8 13 30.14 1021 10 16.0934 0 0
2:52 am 02:52 Mostly Clear 33 0.6 14 -10 45 45 WSW 7 11 30.11 1020 10 16.0934 0 0
3:52 am 03:52 Partly Cloudy 33 0.6 13 -10.6 43 43 WSW 5 7 30.11 1020 10 16.0934 0 0
4:52 am 04:52 Partly Cloudy 33 0.6 13 -10.6 43 43 W 6 9 30.13 1020 10 16.0934 0 0
5:52 am 05:52 Mostly Cloudy 32 0 15 -9.4 50 50 SSW 5 7 30.14 1021 10 16.0934 0 0
6:52 am 06:52 Partly Cloudy 31 -0.6 16 -8.9 54 54 S 3 6 30.14 1021 10 16.0934 0 0
7:52 am 07:52 Mostly Sunny 37 2.8 16 -8.9 42 42 VRB 6 9 30.16 1022 10 16.0934 0 0
8:52 am 08:52 Mostly Sunny 40 4.4 17 -8.3 40 40 NW 13 20 30.18 1022 10 16.0934 0 0
9:52 am 09:52 Mostly Sunny 42 5.6 17 -8.3 36 36 NW 15 24 30.18 1022 10 16.0934 0 0
10:52 am 10:52 Mostly Cloudy 42 5.6 18 -7.8 38 38 W 12 19 30.17 1022 10 16.0934 0 0
11:52 am 11:52 Partly Cloudy 43 6.1 18 -7.8 37 37 NW 13 20 30.16 1021 10 16.0934 0 0
12:52 pm 12:52 Mostly Cloudy 47 8.3 18 -7.8 31 31 W 14 22 30.14 1021 10 16.0934 0 0
1:52 pm 13:52 Mostly Cloudy 46 7.8 17 -8.3 31 31 WNW 13 20 30.14 1021 10 16.0934 0 0
2:52 pm 14:52 Mostly Cloudy 47 8.3 18 -7.8 31 31 NW 10 17 30.13 1020 10 16.0934 0 0
3:15 pm 15:15 Mostly Cloudy 46 7.8 17 -8.3 31 31 NW 13 20 30.14 1021 10 16.0934 0 0
3:52 pm 15:52 Mostly Cloudy 47 8.3 17 -8.3 30 30 NW 13 20 30.14 1021 10 16.0934 0 0
4:52 pm 16:52 Partly Cloudy 46 7.8 17 -8.3 31 31 NW 12 19 30.15 1021 10 16.0934 0 0
5:52 pm 17:52 Mostly Sunny 43 6.1 17 -8.3 35 35 NW 14 22 30.17 1022 10 16.0934 0 0
6:52 pm 18:52 Mostly Clear 41 5 18 -7.8 39 39 NNW 10 17 30.19 1022 10 16.0934 0 0
7:52 pm 19:52 Clear 38 3.3 18 -7.8 44 44 N 7 11 30.21 1023 10 16.0934 0 0
8:52 pm 20:52 Clear 39 3.9 18 -7.8 43 43 NNE 16 26 30.23 1024 10 16.0934 0 0
9:52 pm 21:52 Clear 37 2.8 19 -7.2 48 48 NE 9 15 30.25 1024 10 16.0934 0 0
10:52 pm 22:52 Clear 35 1.7 18 -7.8 50 50 NNE 8 13 30.26 1025 10 16.0934 0 0
11:52 pm 23:52 Clear 35 1.7 18 -7.8 50 50 NE 7 11 30.27 1025 10 16.0934 0 0

Powered by AerisWeather